Content
SEND FEEDBACK

Daily
Averages
Monthly
Summary
United States of America

CAMP QUEZON, GUAM


Home > North America > United States > Guam
Elevation: 82 meters     Latitude: 13 28N     Longitude: 144 48E

WEATHER
 
SELECT A DAY
Number of Records: 209,106;   Date Range: 1/1/95 - 8/12/14
 
SHARE

PRINT THIS DATA

[ ← Previous Day ]
WEATHER ALMANAC - 21 SEPTEMBER, 2013
[ Next Day → ]
[ °F ]   °C
Weather ElementAverageHighLow
Temperature26.1 °C27 °C (2:14 pm)24 °C (7:41 am)
Dewpoint25.1 °C26 °C (2:36 am)23 °C (7:41 am)
Humidity94 %100 % (1:54 am)84 % (6:40 pm)
Barometer1002 hPa1004.1 hPa (8:32 pm)998.6 hPa (2:54 am)
Wind Speed17.1 km/h31.5 km/h (8:46 am)
Wind Gust46.3 km/h (8:46 am)
Weather ElementAverage
Visibility11.9 km
Wind DirectionSW (220.9 °)

Weather ElementTotal
Precipitation69.09 mm
Cooling Degree Days7.2 (Base 18.3)
Growing Degree Days15.5 (Base 10)
Averaged from 44 records on 21 September, 2013
WEATHER CONDITIONS BREAKOUT
WIND DIRECTION BREAKOUT
WEATHER BY HOUR - 21 SEPTEMBER, 2013
[ °F ]   °C
Local TimeTemperatureDewpointHumidityBarometerVisibilityWind DirectionWind SpeedGust SpeedPrecipitationEventsConditions
1:54 AM25 °C25 °C100 %999.3 hPa16.1 kmCalm1.27 mmRainLight Rain
2:17 AM26 °C25 °C94 %1000 hPa16.1 kmWSW (240°)11.1 km/h0 mmRainLight Rain
2:36 AM26 °C26 °C100 %999.7 hPa16.1 kmSW (220°)11.1 km/h0.25 mmMostly Cloudy
2:54 AM26.1 °C25.6 °C97 %998.6 hPa16.1 kmSW (230°)9.3 km/h0.25 mmMostly Cloudy
3:18 AM26 °C26 °C100 %999.7 hPa16.1 kmWSW (240°)11.1 km/hScattered Clouds
3:54 AM26.1 °C25.6 °C97 %999.3 hPa16.1 kmWest (260°)14.8 km/hMostly Cloudy
4:54 AM25.6 °C25 °C96 %1000 hPa8 kmWSW (240°)18.5 km/h2.29 mmRainRain
5:05 AM26 °C25 °C94 %1000.7 hPa4.8 kmSW (230°)22.2 km/h29.6 km/h1.02 mmRainHeavy Rain
5:28 AM25 °C25 °C100 %1000.7 hPa6.4 kmWSW (250°)24.1 km/h3.56 mmRainHeavy Rain
5:35 AM25 °C24 °C94 %1000.7 hPa6.4 kmSW (230°)18.5 km/h35.2 km/h4.57 mmRainHeavy Rain
5:54 AM24.4 °C23.9 °C97 %1000 hPa8 kmWSW (240°)11.1 km/h5.59 mmRainRain
6:54 AM25 °C25 °C100 %1001 hPa8 kmSW (220°)14.8 km/h29.6 km/h4.06 mmRainRain
7:28 AM26 °C25 °C94 %1002 hPa2.9 kmWSW (240°)20.4 km/h33.3 km/h3.81 mmRainHeavy Rain
7:41 AM24 °C23 °C94 %1002.4 hPa4 kmWSW (240°)20.4 km/h35.2 km/h7.11 mmRainHeavy Rain
7:54 AM25 °C23.9 °C94 %1002 hPa4.8 kmWSW (240°)20.4 km/h8.64 mmRainHeavy Rain
8:42 AM26 °C25 °C94 %1003 hPa4 kmWSW (240°)25.9 km/h37 km/h4.06 mmRainRain
8:46 AM26 °C24 °C89 %1003 hPa4.8 kmSW (230°)31.5 km/h46.3 km/h4.57 mmRainRain
8:54 AM25.6 °C24.4 °C93 %1002.4 hPa11.3 kmSW (230°)25.9 km/h46.3 km/h4.83 mmRainRain
9:14 AM26 °C25 °C94 %1003.7 hPa9.7 kmWSW (240°)22.2 km/h38.9 km/h0.76 mmRainRain
9:26 AM26 °C25 °C94 %1003.7 hPa6.4 kmWSW (250°)24.1 km/h1.52 mmRainRain
9:34 AM26 °C25 °C94 %1003.7 hPa4.8 kmSW (230°)25.9 km/h2.03 mmRainHeavy Rain
9:54 AM25.6 °C25 °C96 %1003 hPa6.4 kmSW (220°)20.4 km/h38.9 km/h3.56 mmRainRain
10:16 AM26 °C25 °C94 %1003.7 hPa8 kmSW (220°)25.9 km/h35.2 km/h1.27 mmRainRain
10:54 AM26.1 °C25.6 °C97 %1003 hPa14.5 kmSW (220°)14.8 km/h1.78 mmRainLight Rain
11:54 AM26.1 °C25.6 °C97 %1002.4 hPa8 kmSW (220°)20.4 km/h1.27 mmRainRain
12:01 PM26 °C26 °C100 %1002.7 hPa9.7 kmSW (220°)20.4 km/h33.3 km/h0.25 mmRainLight Rain
12:54 PM26.7 °C25.6 °C94 %1001.7 hPa16.1 kmWSW (250°)29.6 km/h42.6 km/h0.76 mmRainLight Rain
1:54 PM26.7 °C25.6 °C94 %1001 hPa16.1 kmWSW (240°)22.2 km/h38.9 km/h0 mmOvercast
2:14 PM27 °C26 °C94 %1002 hPa16.1 kmWSW (250°)29.6 km/h40.7 km/hOvercast
2:38 PM27 °C25 °C89 %1002 hPa16.1 kmWSW (240°)20.4 km/h37 km/h0 mmRainLight Rain
2:54 PM26.7 °C25 °C90 %1001.4 hPa16.1 kmWSW (240°)20.4 km/h0 mmOvercast
3:54 PM26.7 °C25 °C90 %1001.4 hPa16.1 kmSW (230°)13 km/h0 mmMostly Cloudy
4:54 PM26.7 °C25.6 °C94 %1001.7 hPa16.1 kmSW (220°)14.8 km/h0 mmRainLight Rain
5:54 PM26.7 °C25 °C90 %1002 hPa16.1 kmSW (220°)14.8 km/h0 mmMostly Cloudy
6:40 PM27 °C24 °C84 %1003.4 hPa16.1 kmSSW (210°)9.3 km/h33.3 km/hMostly Cloudy
6:54 PM26.7 °C25 °C90 %1003 hPa16.1 kmSSW (200°)13 km/hMostly Cloudy
7:54 PM26.7 °C25 °C90 %1003 hPa14.5 kmSSW (200°)13 km/h0 mmRainLight Rain
8:32 PM27 °C25 °C89 %1004.1 hPa16.1 kmSSW (200°)11.1 km/h0 mmScattered Clouds
8:54 PM26.7 °C25 °C90 %1003.4 hPa16.1 kmSSW (200°)7.4 km/h0 mmScattered Clouds
9:07 PM27 °C25 °C89 %1004.1 hPa16.1 kmSSW (200°)7.4 km/h0 mmRainLight Rain
9:24 PM27 °C26 °C94 %1004.1 hPa16.1 kmSSW (200°)11.1 km/h0 mmMostly Cloudy
9:54 PM26.7 °C25.6 °C94 %1003.7 hPa16.1 kmSSW (210°)9.3 km/h0 mmScattered Clouds
10:54 PM26.7 °C25.6 °C94 %1003.4 hPa16.1 kmSSW (200°)11.1 km/hScattered Clouds
11:54 PM26.7 °C25.6 °C94 %1003 hPa16.1 kmSouth (170°)7.4 km/h0 mmScattered Clouds
Hourly data recorded from PGUM, located 0 kilometers away from Camp Quezon, Guam







STORIES FROM OUR PARTNERS